Flight Track Log - Related Links

Times and Time Zones

All times are in EDT time to prevent confusion due to time zone crossing. See the UAL484 flight status page for this flight to view local times or setup timezone preferences in your user account.

Time Position Orientation Groundspeed Altitude Reporting Facility
EDT Latitude Longitude Course Direction KTS MPH feet Rate Location/Type
Tue 01:35:18 PM 39.9167 -104.6833 323° Northwest 185 213 6,800  Level Denver TRACON
Tue 01:36:12 PM 39.9667 -104.7333 323° Northwest 250 288 8,700 2,094 Climbing Denver TRACON
Tue 01:37:04 PM 39.9758 -104.8064 279° West 265 305 10,500 2,263 Climbing Denver Center
Tue 01:38:06 PM 39.9833 -104.9208 275° West 325 374 13,000 3,097 Climbing Denver Center
Tue 01:39:08 PM 39.9558 -105.0394 253° West 319 367 16,900 3,484 Climbing Denver Center
Tue 01:40:10 PM 39.9281 -105.1517 252° West 324 373 20,200 2,832 Climbing Denver Center
Tue 01:41:13 PM 39.8764 -105.2539 237° Southwest 326 375 22,800 1,344 Climbing Denver Center
Tue 01:42:15 PM 39.8058 -105.3547 228° Southwest 373 429 23,000 532 Climbing Denver Center
Tue 01:43:17 PM 39.7539 -105.4781 241° Southwest 399 459 23,900 968 Climbing Denver Center
Tue 01:44:19 PM 39.7339 -105.6608 262° West 428 493 25,000 968 Climbing Denver Center
Tue 01:45:21 PM 39.7881 -105.8092 295° West 478 550 25,900 1,258 Climbing Denver Center
Tue 01:46:23 PM 39.8831 -105.9311 315° West 482 555 27,600 1,742 Climbing Denver Center
Tue 01:47:25 PM 39.9783 -106.0531 316° Northwest 482 555 29,500 1,839 Climbing Denver Center
Tue 01:48:27 PM 40.0728 -106.1733 316° Northwest 479 551 31,400 1,790 Climbing Denver Center
Tue 01:49:29 PM 40.1667 -106.2917 316° Northwest 473 544 33,200 1,258 Climbing Denver Center
Tue 01:50:31 PM 40.2686 -106.4244 315° West 467 537 34,000 387 Climbing Denver Center
Tue 01:51:33 PM 40.3597 -106.5433 315° West 467 537 34,000  Level Denver Center
Tue 01:52:36 PM 40.4522 -106.6631 315° West 466 536 34,000 96 Level Denver Center
Tue 01:53:38 PM 40.5442 -106.7825 315° West 466 536 34,200 1,065 Climbing Denver Center
Tue 01:54:40 PM 40.6539 -106.9269 315° West 466 536 36,200 1,742 Climbing Denver Center
Tue 01:55:42 PM 40.7411 -107.0444 314° West 456 525 37,800 871 Climbing Denver Center
Tue 01:56:44 PM 40.8342 -107.1656 315° West 446 513 38,000 97 Climbing Denver Center
Tue 01:57:46 PM 40.9161 -107.2758 315° West 443 510 38,000  Level Denver Center
Tue 01:58:48 PM 41.0106 -107.4075 314° West 443 510 38,000  Level Denver Center
Tue 01:59:50 PM 41.0939 -107.5200 315° West 444 511 38,000  Level Denver Center
Tue 02:00:52 PM 41.1928 -107.6525 315° West 453 521 38,000  Level Denver Center
Tue 02:01:54 PM 41.2772 -107.7675 314° West 453 521 38,000  Level Denver Center
Tue 02:02:56 PM 41.3781 -107.9039 315° West 459 528 38,000  Level Denver Center
Tue 02:03:58 PM 41.4625 -108.0197 314° West 459 528 38,000  Level Denver Center
Tue 02:05:01 PM 41.5617 -108.1558 314° West 459 528 38,000  Level Denver Center
Tue 02:06:03 PM 41.6489 -108.2742 315° West 462 532 38,000  Level Denver Center
Tue 02:07:05 PM 41.7475 -108.4122 314° West 462 532 38,000  Level Denver Center
Tue 02:08:07 PM 41.8314 -108.5292 314° West 460 529 38,000  Level Denver Center
Tue 02:09:35 PM 41.9728 -108.7278 314° West 468 539 38,000 -80 Level Salt Lake Center
Tue 02:10:37 PM 42.0553 -108.8464 313° West 463 533 37,800 -871 Descending Salt Lake Center
Tue 02:11:39 PM 42.1547 -108.9847 314° West 462 532 36,200 -1,296 Descending Salt Lake Center
Tue 02:12:42 PM 42.2389 -109.1064 313° West 463 533 35,100 -1,152 Descending Salt Lake Center
Tue 02:13:44 PM 42.3375 -109.2494 313° West 464 534 33,800 -1,016 Descending Salt Lake Center
Tue 02:14:46 PM 42.4214 -109.3703 313° West 464 534 33,000 -774 Descending Salt Lake Center
Tue 02:15:48 PM 42.5044 -109.4883 314° West 458 527 32,200 -1,016 Descending Salt Lake Center
Tue 02:16:50 PM 42.5992 -109.6267 313° West 451 519 30,900 -1,597 Descending Salt Lake Center
Tue 02:17:52 PM 42.6783 -109.7422 313° West 444 511 28,900 -2,177 Descending Salt Lake Center
Tue 02:18:54 PM 42.7689 -109.8756 313° West 435 501 26,400 -2,129 Descending Salt Lake Center
Tue 02:19:56 PM 42.8453 -109.9822 314° West 417 480 24,500 -1,935 Descending Salt Lake Center
Tue 02:20:58 PM 42.9303 -110.1086 313° West 410 472 22,400 -1,839 Descending Salt Lake Center
Tue 02:22:00 PM 43.0022 -110.2117 314° West 398 458 20,700 -1,935 Descending Salt Lake Center
Tue 02:23:02 PM 43.0833 -110.3297 313° West 387 445 18,400 -2,177 Descending Salt Lake Center
Tue 02:24:04 PM 43.1489 -110.4283 312° West 375 432 16,200 -2,129 Descending Salt Lake Center
Tue 02:25:06 PM 43.2225 -110.5381 313° West 356 410 14,000 -1,065 Descending Salt Lake Center
Tue 02:26:08 PM 43.2769 -110.6172 313° West 281 323 14,000 -387 Level Salt Lake Center
Tue 02:27:10 PM 43.3181 -110.6808 312° West 228 262 13,200 -532 Descending Salt Lake Center
Tue 02:28:12 PM 43.3575 -110.7400 313° West 212 244 12,900 -768 Descending Salt Lake Center
Tue 02:29:15 PM 43.4100 -110.7742 335° Northwest 212 244 11,600 -1,392 Descending Salt Lake Center
Tue 02:30:17 PM 43.4669 -110.7875 350° North 211 243 10,000 -1,500 Descending Salt Lake Center
Tue 02:31:19 PM 43.5172 -110.7831 North 194 223 8,500 -1,355 Descending Salt Lake Center
Tue 02:32:21 PM 43.5631 -110.7594 20° North 161 185 7,200 -919 Descending Salt Lake Center
Tue 02:33:23 PM 43.6000 -110.7411 20° North 148 170 6,600 -581 Descending Salt Lake Center

Login

Don't have an account? Register now (free) for customized features, flight alerts, and more!